Decatur, AL

6:51 AM CST on November 20, 2017 (GMT -0600)
Pryor Regional

Weather History for KDCU - December, 2013

Change the Weather History Date:

Saturday, December 21, 2013

  Actual Average Record
Temperature  
Mean Temperature 68 °F -  
Max Temperature 73 °F 52 °F 73 °F (2013)
Min Temperature 62 °F 32 °F 11 °F (1981)
Cooling Degree Days 2    
Growing Degree Days 18 (Base 50)    
Moisture  
Dew Point 63 °F    
Average Humidity 83    
Maximum Humidity 94    
Minimum Humidity 73    
Precipitation  
Precipitation 0.13 in - - ()
Sea Level Pressure  
Sea Level Pressure 29.81 in    
Wind  
Wind Speed 17 mph (South)    
Max Wind Speed 28 mph    
Max Gust Speed 40 mph    
Visibility 10 miles    
Events Rain    
Averages and records for this station are not official NWS values.
T = Trace of Precipitation, MM = Missing Value Source: NWS Daily Summary

Daily Weather History Graph

Daily Weather History Graph

Search for Another Location

Airport or City:

Trip Planner

Search our weather history database for the weather conditions in past years. The results will help you decide how hot, cold, wet, or windy it might be!

Date:

Astronomy

Dec. 21, 2013 Rise Set
Actual Time 6:51 AM CST 4:41 PM CST
Civil Twilight 6:23 AM CST 5:09 PM CST
Nautical Twilight 5:51 AM CST 5:40 PM CST
Astronomical Twilight 5:20 AM CST 6:11 PM CST
Moon 8:47 PM CST (12/21) 9:25 AM CST (12/21)
Length of Visible Light 10h 46m
Length of Day
9h 49m
Waning Gibbous, 84% of the Moon is Illuminated
Dec 21
Waning Gibbous
Dec 25
Last Quarter
Jan 1
New
Jan 7
First Quarter
Jan 15
Full

Hourly Weather History & Observations

Time (CST) Temp. Dew Point Humidity Pressure Visibility Wind Dir Wind Speed Gust Speed Precip Events Conditions
12:53 AM 64.0 °F 59.0 °F 84% 29.96 in 10.0 mi South 17.3 mph - N/A   Overcast
1:53 AM 63.0 °F 57.9 °F 84% 29.94 in 10.0 mi South 10.4 mph - N/A   Scattered Clouds
2:53 AM 62.1 °F 57.9 °F 86% 29.94 in 10.0 mi SSE 10.4 mph - N/A   Overcast
3:53 AM 63.0 °F 57.9 °F 84% 29.91 in 10.0 mi SSE 16.1 mph - N/A   Overcast
4:12 AM 62.6 °F 57.2 °F 82% 29.92 in 10.0 mi South 16.1 mph - N/A   Overcast
4:53 AM 63.0 °F 57.9 °F 84% 29.90 in 10.0 mi South 15.0 mph 21.9 mph N/A   Overcast
5:53 AM 64.0 °F 59.0 °F 84% 29.89 in 10.0 mi South 12.7 mph - N/A   Overcast
6:53 AM 64.0 °F 60.1 °F 87% 29.87 in 10.0 mi SSE 19.6 mph 27.6 mph N/A   Overcast
7:09 AM 64.4 °F 60.8 °F 88% 29.88 in 10.0 mi South 17.3 mph - N/A   Overcast
7:53 AM 66.0 °F 61.0 °F 84% 29.86 in 10.0 mi SSE 16.1 mph - N/A   Overcast
8:53 AM 64.9 °F 63.0 °F 93% 29.86 in 5.0 mi SSE 15.0 mph 24.2 mph 0.00 in   Overcast
9:28 AM 64.4 °F 62.6 °F 94% 29.87 in 3.0 mi South 18.4 mph - 0.00 in Rain Light Rain
9:36 AM 66.2 °F 64.4 °F 94% 29.87 in 10.0 mi South 18.4 mph - 0.00 in   Overcast
9:49 AM 66.2 °F 64.4 °F 94% 29.87 in 9.0 mi South 18.4 mph 27.6 mph 0.00 in   Overcast
9:53 AM 68.0 °F 64.0 °F 87% 29.86 in 9.0 mi South 19.6 mph - 0.00 in   Overcast
10:07 AM 68.0 °F 64.4 °F 88% 29.87 in 10.0 mi South 21.9 mph 28.8 mph N/A   Overcast
10:53 AM 69.1 °F 64.0 °F 84% 29.85 in 10.0 mi South 18.4 mph - N/A   Overcast
11:53 AM 73.0 °F 64.0 °F 73% 29.82 in 10.0 mi SSW 17.3 mph 28.8 mph N/A   Overcast
12:09 PM 73.4 °F 64.4 °F 73% 29.82 in 10.0 mi South 20.7 mph 32.2 mph N/A   Overcast
12:39 PM 71.6 °F 62.6 °F 73% 29.80 in 10.0 mi South 20.7 mph - N/A   Overcast
12:53 PM 72.0 °F 64.0 °F 76% 29.79 in 10.0 mi South 17.3 mph - N/A   Overcast
1:06 PM 71.6 °F 64.4 °F 78% 29.79 in 10.0 mi SSE 15.0 mph - N/A   Overcast
1:53 PM 70.0 °F 64.9 °F 84% 29.75 in 10.0 mi SSE 13.8 mph - 0.00 in   Overcast
2:53 PM 72.0 °F 64.9 °F 78% 29.73 in 10.0 mi SSE 18.4 mph 25.3 mph 0.00 in   Overcast
3:53 PM 72.0 °F 64.9 °F 78% 29.73 in 10.0 mi SSE 15.0 mph - 0.00 in Rain Light Rain
4:39 PM 71.6 °F 66.2 °F 83% 29.75 in 10.0 mi SSE 15.0 mph - 0.00 in   Overcast
4:53 PM 72.0 °F 66.0 °F 81% 29.74 in 10.0 mi SSE 18.4 mph - 0.00 in   Overcast
5:53 PM 70.0 °F 66.0 °F 87% 29.73 in 10.0 mi SSE 18.4 mph 23.0 mph 0.07 in   Mostly Cloudy
6:45 PM 71.6 °F 66.2 °F 83% 29.73 in 10.0 mi South 20.7 mph - N/A   Mostly Cloudy
6:53 PM 72.0 °F 66.0 °F 81% 29.72 in 10.0 mi South 25.3 mph 32.2 mph N/A   Overcast
7:06 PM 71.6 °F 66.2 °F 83% 29.74 in 10.0 mi South 20.7 mph 32.2 mph N/A   Overcast
7:36 PM 71.6 °F 66.2 °F 83% 29.75 in 10.0 mi South 25.3 mph 38.0 mph N/A   Overcast
7:53 PM 72.0 °F 66.0 °F 81% 29.74 in 10.0 mi South 24.2 mph 32.2 mph N/A   Mostly Cloudy
8:28 PM 71.6 °F 64.4 °F 78% 29.75 in 10.0 mi South 27.6 mph 40.3 mph N/A   Mostly Cloudy
8:39 PM 71.6 °F 64.4 °F 78% 29.74 in 10.0 mi South 27.6 mph 38.0 mph N/A   Mostly Cloudy
8:53 PM 72.0 °F 64.9 °F 78% 29.73 in 10.0 mi South 24.2 mph 35.7 mph N/A   Partly Cloudy
9:42 PM 71.6 °F 66.2 °F 83% 29.76 in 10.0 mi South 20.7 mph 32.2 mph 0.00 in Rain Light Rain
9:53 PM 72.0 °F 64.9 °F 78% 29.74 in 10.0 mi South 21.9 mph 32.2 mph 0.00 in Rain Light Rain
10:08 PM 71.6 °F 66.2 °F 83% 29.76 in 10.0 mi South 21.9 mph 33.4 mph 0.00 in Rain Light Rain
10:53 PM 70.0 °F 66.9 °F 90% 29.75 in 5.0 mi South 18.4 mph - 0.05 in Rain Heavy Rain
11:50 PM 64.4 °F 60.8 °F 88% 29.79 in 10.0 mi West 20.7 mph 31.1 mph 0.01 in   Overcast
11:53 PM 64.0 °F 60.1 °F 87% 29.78 in 10.0 mi West 24.2 mph 34.5 mph 0.01 in   Overcast